UAL1384 KDEN-KFLL

Flight info

Callsign UAL1384
Flight time 2h 45m
Altitude 39000
Route EPKEE7 DUUZE GCK PLATE J20 EIC SWEUP LEV Y290 OCHHO VNECK TEEKY4
Aircraft B738/M-SDE2E3FGHIRWXY/LB1

Departure

Time 2026-05-07 20:25
Airport Denver International Airport (KDEN)

Arrival

Time 2026-05-07 23:10
Airport Fort Lauderdale Hollywood International Airport (KFLL)
Time Latitude Longitude Altitude Speed Heading
2026-05-07 20:06 39.85336 -104.67929 5382 ft 0 kts
2026-05-07 20:14 39.85328 -104.67929 5381 ft 3 kts
2026-05-07 20:14 39.85305 -104.67929 5380 ft 3 kts 354°
2026-05-07 20:14 39.85285 -104.67922 5381 ft 3 kts 311°
2026-05-07 20:14 39.85281 -104.67912 5380 ft 1 kts 270°
2026-05-07 20:18 39.85280 -104.67924 5380 ft 4 kts 261°
2026-05-07 20:18 39.85270 -104.67988 5382 ft 10 kts 258°
2026-05-07 20:18 39.85253 -104.68093 5382 ft 13 kts 258°
2026-05-07 20:19 39.85233 -104.68212 5382 ft 14 kts 255°
2026-05-07 20:19 39.85207 -104.68350 5378 ft 16 kts 264°
2026-05-07 20:19 39.85214 -104.68491 5378 ft 15 kts 297°
2026-05-07 20:19 39.85310 -104.68518 5375 ft 15 kts
2026-05-07 20:20 39.85417 -104.68516 5375 ft 17 kts
2026-05-07 20:20 39.85545 -104.68515 5372 ft 20 kts
2026-05-07 20:20 39.85682 -104.68514 5369 ft 19 kts
2026-05-07 20:20 39.85815 -104.68513 5369 ft 19 kts
2026-05-07 20:21 39.85944 -104.68512 5370 ft 18 kts
2026-05-07 20:21 39.86069 -104.68509 5367 ft 18 kts
2026-05-07 20:21 39.86191 -104.68508 5366 ft 17 kts
2026-05-07 20:21 39.86312 -104.68506 5362 ft 17 kts
2026-05-07 20:22 39.86406 -104.68509 5362 ft 8 kts 348°
2026-05-07 20:22 39.86427 -104.68546 5361 ft 4 kts 275°
2026-05-07 20:22 39.86428 -104.68571 5362 ft 2 kts 270°
2026-05-07 20:22 39.86428 -104.68576 5362 ft 0 kts 270°
2026-05-07 20:23 39.86428 -104.68593 5362 ft 5 kts 270°
2026-05-07 20:23 39.86428 -104.68657 5362 ft 9 kts 270°
2026-05-07 20:23 39.86437 -104.68711 5361 ft 4 kts 315°
2026-05-07 20:24 39.86473 -104.68718 5362 ft 12 kts 359°
2026-05-07 20:24 39.86794 -104.68714 5362 ft 80 kts
2026-05-07 20:24 39.87566 -104.68709 5361 ft 140 kts
2026-05-07 20:24 39.88717 -104.68698 5366 ft 189 kts 358°
2026-05-07 20:25 39.90074 -104.68660 5979 ft 197 kts 355°
2026-05-07 20:25 39.91414 -104.68235 6709 ft 208 kts 26°
2026-05-07 20:25 39.92416 -104.66725 6882 ft 237 kts 66°
2026-05-07 20:25 39.92599 -104.64533 7069 ft 257 kts 100°
2026-05-07 20:26 39.91951 -104.62297 7334 ft 271 kts 120°
2026-05-07 20:26 39.90942 -104.60106 7521 ft 295 kts 121°
2026-05-07 20:26 39.89949 -104.57720 8028 ft 307 kts 118°
2026-05-07 20:26 39.88992 -104.55232 8785 ft 308 kts 117°
2026-05-07 20:27 39.88032 -104.52710 9403 ft 313 kts 117°
2026-05-07 20:27 39.87060 -104.50171 10087 ft 314 kts 117°
2026-05-07 20:27 39.86065 -104.47591 10457 ft 328 kts 117°
2026-05-07 20:27 39.85002 -104.44854 10592 ft 348 kts 117°
2026-05-07 20:28 39.83878 -104.41970 10801 ft 365 kts 117°
2026-05-07 20:28 39.82713 -104.38995 11249 ft 372 kts 117°
2026-05-07 20:28 39.81533 -104.35991 11881 ft 374 kts 118°
2026-05-07 20:28 39.80346 -104.32971 12495 ft 377 kts 117°
2026-05-07 20:29 39.79141 -104.29912 13093 ft 382 kts 117°
2026-05-07 20:29 39.77924 -104.26827 13695 ft 386 kts 117°
2026-05-07 20:29 39.76690 -104.23701 14277 ft 390 kts 117°
2026-05-07 20:29 39.75446 -104.20553 14904 ft 393 kts 117°
2026-05-07 20:30 39.74195 -104.17391 15504 ft 396 kts 118°
2026-05-07 20:30 39.72929 -104.14195 16098 ft 399 kts 118°
2026-05-07 20:30 39.71652 -104.10977 16688 ft 402 kts 118°
2026-05-07 20:30 39.70382 -104.07778 17260 ft 405 kts 118°
2026-05-07 20:31 39.69066 -104.04467 17857 ft 409 kts 118°
2026-05-07 20:31 39.67771 -104.01211 18405 ft 413 kts 118°
2026-05-07 20:31 39.66448 -103.97889 18881 ft 417 kts 118°
2026-05-07 20:31 39.65109 -103.94529 19339 ft 421 kts 118°
2026-05-07 20:32 39.63757 -103.91141 19800 ft 425 kts 118°
2026-05-07 20:32 39.62392 -103.87721 20262 ft 429 kts 118°
2026-05-07 20:32 39.61012 -103.84271 20714 ft 433 kts 118°
2026-05-07 20:32 39.59618 -103.80785 21149 ft 437 kts 117°
2026-05-07 20:33 39.58372 -103.77161 21566 ft 442 kts 111°
2026-05-07 20:33 39.57288 -103.73410 21989 ft 446 kts 110°
2026-05-07 20:33 39.56245 -103.69596 22416 ft 450 kts 109°
2026-05-07 20:33 39.55205 -103.65755 22852 ft 454 kts 109°
2026-05-07 20:34 39.54147 -103.61884 23277 ft 458 kts 109°
2026-05-07 20:34 39.53066 -103.57988 23658 ft 461 kts 110°
2026-05-07 20:34 39.51965 -103.54068 23999 ft 465 kts 110°
2026-05-07 20:34 39.50848 -103.50125 24362 ft 467 kts 110°
2026-05-07 20:35 39.49721 -103.46168 24715 ft 470 kts 110°
2026-05-07 20:35 39.48584 -103.42186 25059 ft 473 kts 110°
2026-05-07 20:35 39.47441 -103.38187 25388 ft 475 kts 110°
2026-05-07 20:35 39.46289 -103.34162 25700 ft 478 kts 109°
2026-05-07 20:36 39.45130 -103.30116 26020 ft 481 kts 109°
2026-05-07 20:36 39.43965 -103.26055 26343 ft 483 kts 109°
2026-05-07 20:36 39.42792 -103.21973 26657 ft 485 kts 109°
2026-05-07 20:36 39.41610 -103.17864 26972 ft 488 kts 109°
2026-05-07 20:37 39.40424 -103.13749 27282 ft 490 kts 109°
2026-05-07 20:37 39.39228 -103.09605 27582 ft 492 kts 109°
2026-05-07 20:37 39.38043 -103.05501 27867 ft 495 kts 109°
2026-05-07 20:37 39.36834 -103.01323 28159 ft 497 kts 110°
2026-05-07 20:38 39.35620 -102.97136 28450 ft 499 kts 110°
2026-05-07 20:38 39.34319 -102.92971 28719 ft 502 kts 114°
2026-05-07 20:38 39.32793 -102.88897 28996 ft 504 kts 117°
2026-05-07 20:38 39.31181 -102.84866 29264 ft 506 kts 118°
2026-05-07 20:39 39.29537 -102.80833 29515 ft 508 kts 118°
2026-05-07 20:39 39.27890 -102.76771 29763 ft 511 kts 117°
2026-05-07 20:39 39.26256 -102.72692 30019 ft 513 kts 117°
2026-05-07 20:39 39.24632 -102.68595 30222 ft 514 kts 117°
2026-05-07 20:40 39.23009 -102.64476 30459 ft 516 kts 117°
2026-05-07 20:40 39.21387 -102.60354 30743 ft 515 kts 117°
2026-05-07 20:40 39.19786 -102.56290 31065 ft 514 kts 117°
2026-05-07 20:40 39.18147 -102.52141 31407 ft 513 kts 117°
2026-05-07 20:41 39.16550 -102.48106 31674 ft 512 kts 117°
2026-05-07 20:41 39.14928 -102.44014 31939 ft 512 kts 117°
2026-05-07 20:41 39.13305 -102.39932 32225 ft 512 kts 117°
2026-05-07 20:41 39.11677 -102.35858 32515 ft 511 kts 117°
2026-05-07 20:42 39.10048 -102.31801 32794 ft 510 kts 117°
2026-05-07 20:42 39.08417 -102.27747 33046 ft 510 kts 118°
2026-05-07 20:42 39.06786 -102.23696 33304 ft 509 kts 118°
2026-05-07 20:42 39.05157 -102.19653 33562 ft 509 kts 118°
2026-05-07 20:43 39.04078 -102.16977 33738 ft 508 kts 118°
2026-05-07 20:43 39.02449 -102.12940 33974 ft 508 kts 118°
2026-05-07 20:43 39.00823 -102.08914 34174 ft 507 kts 118°
2026-05-07 20:43 38.99197 -102.04892 34375 ft 507 kts 118°
2026-05-07 20:44 38.97568 -102.00870 34560 ft 507 kts 118°
2026-05-07 20:44 38.95939 -101.96852 34749 ft 507 kts 119°
2026-05-07 20:44 38.94311 -101.92841 34945 ft 506 kts 119°
2026-05-07 20:44 38.92683 -101.88837 35135 ft 506 kts 119°
2026-05-07 20:45 38.91055 -101.84835 35312 ft 506 kts 119°
2026-05-07 20:45 38.89422 -101.80826 35483 ft 506 kts 120°
2026-05-07 20:45 38.87791 -101.76827 35660 ft 506 kts 120°
2026-05-07 20:45 38.86081 -101.72889 35822 ft 503 kts 126°
2026-05-07 20:46 38.84007 -101.69291 35977 ft 500 kts 135°
2026-05-07 20:46 38.81589 -101.66138 36131 ft 493 kts 145°
2026-05-07 20:46 38.78949 -101.63342 36335 ft 490 kts 146°
2026-05-07 20:46 38.76299 -101.60596 36504 ft 490 kts 147°
2026-05-07 20:47 38.73678 -101.57887 36655 ft 490 kts 147°
2026-05-07 20:47 38.71025 -101.55128 36813 ft 490 kts 146°
2026-05-07 20:47 38.68389 -101.52368 36932 ft 490 kts 146°
2026-05-07 20:48 38.63103 -101.46797 36938 ft 495 kts 146°
2026-05-07 20:48 38.57774 -101.41167 36952 ft 498 kts 146°
2026-05-07 20:49 38.52403 -101.35502 36949 ft 501 kts 146°
2026-05-07 20:49 38.47006 -101.29823 36949 ft 503 kts 146°
2026-05-07 20:50 38.41632 -101.24176 36943 ft 496 kts 146°
2026-05-07 20:50 38.36378 -101.18668 36947 ft 491 kts 147°
2026-05-07 20:51 38.31107 -101.13161 36958 ft 489 kts 147°
2026-05-07 20:51 38.25850 -101.07678 36964 ft 489 kts 147°
2026-05-07 20:52 38.20585 -101.02196 36964 ft 489 kts 147°
2026-05-07 20:52 38.15309 -100.96713 36970 ft 490 kts 147°
2026-05-07 20:53 38.10027 -100.91234 36976 ft 491 kts 147°
2026-05-07 20:53 38.04725 -100.85742 36987 ft 492 kts 147°
2026-05-07 20:54 37.99406 -100.80244 37008 ft 493 kts 147°
2026-05-07 20:54 37.94074 -100.74742 36997 ft 495 kts 147°
2026-05-07 20:55 37.89031 -100.68816 37010 ft 502 kts 139°
2026-05-07 20:55 37.84347 -100.62213 36992 ft 504 kts 137°
2026-05-07 20:56 37.79690 -100.55573 36987 ft 504 kts 138°
2026-05-07 20:56 37.74996 -100.48987 36980 ft 504 kts 138°
2026-05-07 20:57 37.70282 -100.42450 36972 ft 503 kts 139°
2026-05-07 20:57 37.65567 -100.35943 36972 ft 502 kts 139°
2026-05-07 20:58 37.60862 -100.29458 36976 ft 500 kts 139°
2026-05-07 20:58 37.56169 -100.23000 36978 ft 499 kts 139°
2026-05-07 20:59 37.51508 -100.16597 36979 ft 498 kts 139°
2026-05-07 20:59 37.46828 -100.10180 36978 ft 497 kts 139°
2026-05-07 21:00 37.42152 -100.03782 36967 ft 496 kts 139°
2026-05-07 21:00 37.37482 -99.97406 36966 ft 495 kts 140°
2026-05-07 21:01 37.32816 -99.91046 36967 ft 495 kts 140°
2026-05-07 21:01 37.28147 -99.84697 36965 ft 495 kts 140°
2026-05-07 21:02 37.23473 -99.78354 36969 ft 495 kts 140°
2026-05-07 21:02 37.18789 -99.72008 36968 ft 496 kts 140°
2026-05-07 21:03 37.14091 -99.65656 36964 ft 497 kts 140°
2026-05-07 21:03 37.09415 -99.59345 36967 ft 498 kts 141°
2026-05-07 21:04 37.04696 -99.52990 36965 ft 499 kts 141°
2026-05-07 21:04 36.99969 -99.46634 36966 ft 499 kts 141°
2026-05-07 21:05 36.95229 -99.40274 36972 ft 500 kts 141°
2026-05-07 21:05 36.90472 -99.33906 36972 ft 501 kts 141°
2026-05-07 21:06 36.85703 -99.27534 36968 ft 502 kts 141°
2026-05-07 21:06 36.80923 -99.21158 36966 ft 503 kts 142°
2026-05-07 21:07 36.76145 -99.14795 36969 ft 502 kts 142°
2026-05-07 21:07 36.71366 -99.08445 36965 ft 502 kts 142°
2026-05-07 21:08 36.66581 -99.02103 36965 ft 501 kts 142°
2026-05-07 21:08 36.61837 -98.95823 36974 ft 501 kts 143°
2026-05-07 21:09 36.57059 -98.89512 36967 ft 501 kts 143°
2026-05-07 21:09 36.52279 -98.83210 36972 ft 500 kts 143°
2026-05-07 21:10 36.47496 -98.76917 36966 ft 500 kts 143°
2026-05-07 21:10 36.42711 -98.70633 36967 ft 500 kts 143°
2026-05-07 21:11 36.37919 -98.64353 36970 ft 500 kts 144°
2026-05-07 21:11 36.30766 -98.55000 36979 ft 501 kts 144°
2026-05-07 21:12 36.25957 -98.48729 36979 ft 502 kts 144°
2026-05-07 21:12 36.21133 -98.42450 36990 ft 504 kts 144°
2026-05-07 21:13 36.16288 -98.36155 36999 ft 505 kts 144°
2026-05-07 21:13 36.11430 -98.29853 37011 ft 506 kts 145°
2026-05-07 21:14 36.06559 -98.23547 37017 ft 507 kts 145°
2026-05-07 21:14 36.01677 -98.17238 37019 ft 508 kts 145°
2026-05-07 21:15 35.96820 -98.10974 37021 ft 508 kts 145°
2026-05-07 21:15 35.91929 -98.04678 37010 ft 508 kts 145°
2026-05-07 21:16 35.87032 -97.98386 37008 ft 508 kts 146°
2026-05-07 21:16 35.82136 -97.92108 37017 ft 507 kts 146°
2026-05-07 21:17 35.77243 -97.85845 37025 ft 507 kts 146°
2026-05-07 21:17 35.72348 -97.79592 37027 ft 507 kts 146°
2026-05-07 21:18 35.67485 -97.73393 37030 ft 506 kts 146°
2026-05-07 21:18 35.62593 -97.67168 37031 ft 506 kts 146°
2026-05-07 21:19 35.57705 -97.60959 37033 ft 506 kts 146°
2026-05-07 21:19 35.52905 -97.54586 37034 ft 512 kts 142°
2026-05-07 21:20 35.48334 -97.47837 37042 ft 515 kts 141°
2026-05-07 21:20 35.43794 -97.41034 37043 ft 515 kts 141°
2026-05-07 21:21 35.39214 -97.34269 37035 ft 515 kts 142°
2026-05-07 21:21 35.34605 -97.27542 37043 ft 515 kts 142°
2026-05-07 21:22 35.29981 -97.20825 37045 ft 516 kts 142°
2026-05-07 21:22 35.25343 -97.14098 37051 ft 516 kts 142°
2026-05-07 21:23 35.20704 -97.07377 37054 ft 517 kts 142°
2026-05-07 21:23 35.16062 -97.00662 37056 ft 517 kts 142°
2026-05-07 21:24 35.11445 -96.93996 37057 ft 517 kts 142°
2026-05-07 21:24 35.06790 -96.87290 37053 ft 518 kts 142°
2026-05-07 21:25 35.02131 -96.80590 37055 ft 518 kts 142°
2026-05-07 21:25 34.97468 -96.73897 37050 ft 518 kts 142°
2026-05-07 21:26 34.92799 -96.67209 37050 ft 518 kts 142°
2026-05-07 21:26 34.88126 -96.60528 37049 ft 518 kts 143°
2026-05-07 21:27 34.83451 -96.53857 37047 ft 518 kts 142°
2026-05-07 21:27 34.78767 -96.47185 37053 ft 518 kts 143°
2026-05-07 21:28 34.74116 -96.40574 37054 ft 518 kts 143°
2026-05-07 21:28 34.69427 -96.33922 37054 ft 518 kts 143°
2026-05-07 21:29 34.64733 -96.27276 37061 ft 518 kts 143°
2026-05-07 21:29 34.60031 -96.20630 37061 ft 519 kts 143°
2026-05-07 21:30 34.55322 -96.13987 37062 ft 519 kts 143°
2026-05-07 21:30 34.50608 -96.07349 37057 ft 519 kts 143°
2026-05-07 21:31 34.46688 -96.01838 37053 ft 519 kts 143°
2026-05-07 21:31 34.41196 -95.94132 37050 ft 519 kts 143°
2026-05-07 21:32 34.36471 -95.87516 37059 ft 519 kts 143°
2026-05-07 21:32 34.32539 -95.82020 37051 ft 519 kts 143°
2026-05-07 21:33 34.27813 -95.75425 37056 ft 519 kts 143°
2026-05-07 21:33 34.23082 -95.68836 37054 ft 518 kts 143°
2026-05-07 21:34 34.18354 -95.62265 37057 ft 518 kts 143°
2026-05-07 21:34 34.13623 -95.55699 37047 ft 518 kts 143°
2026-05-07 21:35 34.08892 -95.49147 37055 ft 517 kts 143°
2026-05-07 21:35 34.04154 -95.42598 37049 ft 517 kts 143°
2026-05-07 21:36 33.99452 -95.36110 37047 ft 517 kts 143°
2026-05-07 21:36 33.94712 -95.29581 37050 ft 517 kts 143°
2026-05-07 21:37 33.89970 -95.23063 37057 ft 517 kts 143°
2026-05-07 21:37 33.85226 -95.16552 37061 ft 517 kts 143°
2026-05-07 21:38 33.80476 -95.10046 37058 ft 517 kts 143°
2026-05-07 21:38 33.75735 -95.03563 37059 ft 516 kts 143°
2026-05-07 21:39 33.70989 -94.97086 37062 ft 516 kts 143°
2026-05-07 21:39 33.66277 -94.90666 37062 ft 515 kts 143°
2026-05-07 21:40 33.61532 -94.84214 37063 ft 515 kts 143°
2026-05-07 21:40 33.56793 -94.77781 37066 ft 514 kts 143°
2026-05-07 21:41 33.52052 -94.71357 37061 ft 514 kts 143°
2026-05-07 21:41 33.47310 -94.64943 37067 ft 513 kts 143°
2026-05-07 21:42 33.42573 -94.58548 37068 ft 513 kts 143°
2026-05-07 21:42 33.37867 -94.52206 37066 ft 513 kts 143°
2026-05-07 21:43 33.33123 -94.45825 37070 ft 512 kts 143°
2026-05-07 21:43 33.28384 -94.39461 37067 ft 512 kts 143°
2026-05-07 21:44 33.23643 -94.33106 37067 ft 512 kts 143°
2026-05-07 21:44 33.18898 -94.26756 37074 ft 512 kts 143°
2026-05-07 21:45 33.14148 -94.20412 37059 ft 513 kts 143°
2026-05-07 21:45 33.09390 -94.14067 37072 ft 513 kts 142°
2026-05-07 21:46 33.04626 -94.07726 37069 ft 513 kts 142°
2026-05-07 21:46 32.99857 -94.01388 37070 ft 513 kts 142°
2026-05-07 21:47 32.95091 -93.95066 37071 ft 513 kts 142°
2026-05-07 21:47 32.90312 -93.88738 37077 ft 514 kts 142°
2026-05-07 21:48 32.85565 -93.82462 37075 ft 514 kts 142°
2026-05-07 21:48 32.80770 -93.76136 37080 ft 514 kts 142°
2026-05-07 21:49 32.75979 -93.69825 37079 ft 514 kts 142°
2026-05-07 21:49 32.71178 -93.63511 37082 ft 515 kts 142°
2026-05-07 21:50 32.66378 -93.57210 37073 ft 515 kts 142°
2026-05-07 21:50 32.61571 -93.50910 37070 ft 515 kts 142°
2026-05-07 21:51 32.56756 -93.44611 37070 ft 515 kts 142°
2026-05-07 21:51 32.51946 -93.38328 37072 ft 514 kts 142°
2026-05-07 21:52 32.47132 -93.32051 37073 ft 514 kts 142°
2026-05-07 21:52 32.42323 -93.25793 37076 ft 514 kts 142°
2026-05-07 21:53 32.37514 -93.19545 37076 ft 513 kts 142°
2026-05-07 21:53 32.32734 -93.13345 37079 ft 513 kts 142°
2026-05-07 21:54 32.27922 -93.07115 37075 ft 513 kts 142°
2026-05-07 21:54 32.23108 -93.00891 37070 ft 512 kts 142°
2026-05-07 21:55 32.18302 -92.94688 37070 ft 512 kts 142°
2026-05-07 21:55 32.13492 -92.88491 37067 ft 512 kts 142°
2026-05-07 21:56 32.08682 -92.82304 37070 ft 512 kts 142°
2026-05-07 21:56 32.03871 -92.76125 37061 ft 511 kts 142°
2026-05-07 21:57 31.99060 -92.69955 37062 ft 511 kts 142°
2026-05-07 21:57 31.94000 -92.64340 37073 ft 497 kts 152°
2026-05-07 21:58 31.88609 -92.59269 37060 ft 496 kts 153°
2026-05-07 21:58 31.83197 -92.54223 37065 ft 496 kts 152°
2026-05-07 21:59 31.77804 -92.49138 37062 ft 497 kts 152°
2026-05-07 21:59 31.72415 -92.44025 37059 ft 498 kts 152°
2026-05-07 22:00 31.67023 -92.38907 37059 ft 499 kts 152°
2026-05-07 22:00 31.61612 -92.33781 37045 ft 499 kts 152°
2026-05-07 22:01 31.56202 -92.28665 37042 ft 500 kts 152°
2026-05-07 22:01 31.50788 -92.23556 37040 ft 500 kts 152°
2026-05-07 22:02 31.45404 -92.18482 37033 ft 500 kts 152°
2026-05-07 22:02 31.39984 -92.13381 37042 ft 499 kts 152°
2026-05-07 22:03 31.34565 -92.08290 37045 ft 499 kts 152°
2026-05-07 22:03 31.29155 -92.03216 37062 ft 498 kts 152°
2026-05-07 22:04 31.23745 -91.98149 37050 ft 498 kts 152°
2026-05-07 22:04 31.18338 -91.93092 37058 ft 497 kts 152°
2026-05-07 22:05 31.12933 -91.88044 37060 ft 497 kts 152°
2026-05-07 22:05 31.07534 -91.83010 37055 ft 497 kts 152°
2026-05-07 22:06 31.02125 -91.77974 37049 ft 496 kts 152°
2026-05-07 22:06 30.96765 -91.72992 37047 ft 496 kts 152°
2026-05-07 22:07 30.91374 -91.67988 37037 ft 495 kts 152°
2026-05-07 22:07 30.85980 -91.62989 37034 ft 495 kts 152°
2026-05-07 22:08 30.80590 -91.58001 37032 ft 495 kts 152°
2026-05-07 22:08 30.75193 -91.53013 37034 ft 495 kts 152°
2026-05-07 22:09 30.69803 -91.48039 37033 ft 495 kts 152°
2026-05-07 22:09 30.64410 -91.43071 37035 ft 495 kts 152°
2026-05-07 22:10 30.59014 -91.38106 37029 ft 495 kts 152°
2026-05-07 22:10 30.53650 -91.33178 37021 ft 495 kts 151°
2026-05-07 22:11 30.48244 -91.28219 37022 ft 495 kts 151°
2026-05-07 22:11 30.42835 -91.23264 37022 ft 495 kts 151°
2026-05-07 22:12 30.37421 -91.18312 37019 ft 496 kts 151°
2026-05-07 22:12 30.31998 -91.13359 37018 ft 496 kts 151°
2026-05-07 22:13 30.26579 -91.08416 36998 ft 496 kts 151°
2026-05-07 22:13 30.21152 -91.03474 37005 ft 497 kts 151°
2026-05-07 22:14 30.15719 -90.98533 36997 ft 497 kts 150°
2026-05-07 22:14 30.10283 -90.93596 36996 ft 497 kts 150°
2026-05-07 22:15 30.04853 -90.88670 36994 ft 496 kts 150°
2026-05-07 22:15 29.99443 -90.83772 36996 ft 496 kts 150°
2026-05-07 22:16 29.94013 -90.78862 37002 ft 496 kts 150°
2026-05-07 22:16 29.88578 -90.73954 37005 ft 496 kts 150°
2026-05-07 22:17 29.83151 -90.69061 37006 ft 495 kts 150°
2026-05-07 22:17 29.77727 -90.64177 37005 ft 495 kts 150°
2026-05-07 22:18 29.69573 -90.56849 37015 ft 495 kts 150°
2026-05-07 22:19 29.64146 -90.51979 37008 ft 495 kts 150°
2026-05-07 22:19 29.58719 -90.47116 37006 ft 494 kts 150°
2026-05-07 22:20 29.53298 -90.42266 37005 ft 494 kts 150°
2026-05-07 22:20 29.48794 -90.38241 37006 ft 493 kts 150°
2026-05-07 22:21 29.42497 -90.32622 37005 ft 493 kts 150°
2026-05-07 22:21 29.37955 -90.28574 37006 ft 493 kts 150°
2026-05-07 22:22 29.32532 -90.23747 37006 ft 493 kts 150°
2026-05-07 22:22 29.27151 -90.18963 37002 ft 493 kts 150°
2026-05-07 22:23 29.21735 -90.14151 37000 ft 493 kts 148°
2026-05-07 22:23 29.17015 -90.08289 36992 ft 510 kts 129°
2026-05-07 22:24 29.13770 -90.00983 36992 ft 519 kts 117°
2026-05-07 22:24 29.11015 -89.93341 36981 ft 520 kts 117°
2026-05-07 22:25 29.08248 -89.85709 36985 ft 519 kts 117°
2026-05-07 22:25 29.05418 -89.78102 36989 ft 519 kts 117°
2026-05-07 22:26 29.02564 -89.70527 36986 ft 519 kts 118°
2026-05-07 22:26 28.99698 -89.62943 36989 ft 519 kts 117°
2026-05-07 22:27 28.96837 -89.55375 36989 ft 519 kts 117°
2026-05-07 22:27 28.93970 -89.47803 36986 ft 519 kts 117°
2026-05-07 22:28 28.91100 -89.40233 36986 ft 519 kts 118°
2026-05-07 22:28 28.88243 -89.32714 36983 ft 519 kts 117°
2026-05-07 22:29 28.85365 -89.25157 36984 ft 519 kts 118°
2026-05-07 22:29 28.82481 -89.17600 36988 ft 519 kts 117°
2026-05-07 22:30 28.79593 -89.10047 36988 ft 519 kts 117°
2026-05-07 22:30 28.76706 -89.02511 36984 ft 519 kts 117°
2026-05-07 22:31 28.73829 -88.95016 36986 ft 519 kts 117°
2026-05-07 22:31 28.70912 -88.87434 36985 ft 519 kts 117°
2026-05-07 22:32 28.68033 -88.79964 36986 ft 519 kts 117°
2026-05-07 22:32 28.65129 -88.72443 36983 ft 519 kts 117°
2026-05-07 22:33 28.62220 -88.64926 36984 ft 519 kts 117°
2026-05-07 22:33 28.59306 -88.57411 36987 ft 519 kts 117°
2026-05-07 22:34 28.56390 -88.49904 36988 ft 519 kts 117°
2026-05-07 22:34 28.53469 -88.42400 36986 ft 519 kts 117°
2026-05-07 22:35 28.50540 -88.34889 36988 ft 519 kts 117°
2026-05-07 22:35 28.47609 -88.27389 36988 ft 519 kts 117°
2026-05-07 22:36 28.44676 -88.19897 36988 ft 519 kts 117°
2026-05-07 22:36 28.41759 -88.12457 36991 ft 519 kts 117°
2026-05-07 22:37 28.38818 -88.04972 36993 ft 519 kts 117°
2026-05-07 22:37 28.36259 -87.97282 36994 ft 521 kts 111°
2026-05-07 22:38 28.34752 -87.91897 36991 ft 522 kts 110°
2026-05-07 22:38 28.33013 -87.85572 36993 ft 522 kts 110°
2026-05-07 22:39 28.30803 -87.77734 36993 ft 521 kts 110°
2026-05-07 22:39 28.30542 -87.76823 36993 ft 521 kts 110°
2026-05-07 22:40 28.28739 -87.70582 36994 ft 521 kts 111°
2026-05-07 22:40 28.26481 -87.62827 36993 ft 521 kts 111°
2026-05-07 22:41 28.24574 -87.56285 36995 ft 521 kts 111°
2026-05-07 22:41 28.24344 -87.55497 36992 ft 521 kts 111°
2026-05-07 22:42 28.01721 -86.78474 37050 ft 519 kts 111°
2026-05-07 22:42 27.65289 -85.54971 36978 ft 516 kts 110°
2026-05-07 22:43 27.41352 -84.28487 37024 ft 515 kts 99°
2026-05-07 22:43 27.36524 -83.64561 36970 ft 512 kts 87°
2026-05-07 22:43 27.39196 -83.43189 37053 ft 507 kts 78°
2026-05-07 22:43 27.38746 -83.21226 37073 ft 511 kts 94°
2026-05-07 22:44 27.38236 -83.13523 37046 ft 512 kts 94°
2026-05-07 22:44 27.37617 -83.09582 37038 ft 512 kts 105°
2026-05-07 22:44 27.36615 -83.05735 37035 ft 512 kts 108°
2026-05-07 22:45 27.34365 -82.98100 36526 ft 520 kts 108°
2026-05-07 22:45 27.33261 -82.94228 35950 ft 518 kts 108°
2026-05-07 22:45 27.32203 -82.90360 35288 ft 519 kts 107°
2026-05-07 22:45 27.31168 -82.86477 34598 ft 520 kts 107°
2026-05-07 22:46 27.30143 -82.82616 33866 ft 522 kts 107°
2026-05-07 22:46 27.29092 -82.78705 33069 ft 524 kts 108°
2026-05-07 22:46 27.27748 -82.74938 32817 ft 512 kts 116°
2026-05-07 22:46 27.26205 -82.71380 32549 ft 502 kts 118°
2026-05-07 22:47 27.24597 -82.67892 32325 ft 506 kts 119°
2026-05-07 22:47 27.22950 -82.64361 32092 ft 513 kts 118°
2026-05-07 22:47 27.21301 -82.60781 31844 ft 517 kts 118°
2026-05-07 22:47 27.19673 -82.57187 31584 ft 514 kts 118°
2026-05-07 22:48 27.18075 -82.53608 31332 ft 511 kts 117°
2026-05-07 22:48 27.16501 -82.50052 31090 ft 508 kts 117°
2026-05-07 22:48 27.14934 -82.46503 30854 ft 505 kts 117°
2026-05-07 22:48 27.13380 -82.42984 30614 ft 503 kts 117°
2026-05-07 22:49 27.11828 -82.39478 30375 ft 500 kts 117°
2026-05-07 22:49 27.10281 -82.35991 30142 ft 498 kts 117°
2026-05-07 22:49 27.08739 -82.32519 29877 ft 495 kts 117°
2026-05-07 22:49 27.07203 -82.29068 29619 ft 493 kts 117°
2026-05-07 22:50 27.05674 -82.25634 29367 ft 490 kts 117°
2026-05-07 22:50 27.04153 -82.22220 29133 ft 488 kts 117°
2026-05-07 22:50 27.02657 -82.18866 28906 ft 486 kts 117°
2026-05-07 22:50 27.01147 -82.15482 28671 ft 484 kts 117°
2026-05-07 22:51 26.99640 -82.12106 28441 ft 482 kts 117°
2026-05-07 22:51 26.98141 -82.08752 28211 ft 480 kts 117°
2026-05-07 22:51 26.96640 -82.05418 27988 ft 479 kts 119°
2026-05-07 22:51 26.94755 -82.02361 27744 ft 475 kts 134°
2026-05-07 22:52 26.92128 -81.99276 27513 ft 472 kts 137°
2026-05-07 22:52 26.87510 -81.94045 27057 ft 470 kts 136°
2026-05-07 22:52 26.82994 -81.88783 26624 ft 469 kts 135°
2026-05-07 22:52 26.79332 -81.84452 26249 ft 467 kts 135°
2026-05-07 22:53 26.77109 -81.81828 26010 ft 460 kts 135°
2026-05-07 22:53 26.74912 -81.79254 25545 ft 456 kts 135°
2026-05-07 22:53 26.72719 -81.76704 25095 ft 452 kts 135°
2026-05-07 22:53 26.70543 -81.74182 24628 ft 449 kts 135°
2026-05-07 22:54 26.68378 -81.71670 24177 ft 446 kts 135°
2026-05-07 22:54 26.66230 -81.69175 23728 ft 444 kts 135°
2026-05-07 22:54 26.64098 -81.66699 23222 ft 441 kts 135°
2026-05-07 22:54 26.62030 -81.64181 22715 ft 438 kts 130°
2026-05-07 22:55 26.60152 -81.61510 22199 ft 435 kts 127°
2026-05-07 22:55 26.58374 -81.58787 21715 ft 432 kts 126°
2026-05-07 22:55 26.56644 -81.56098 21216 ft 429 kts 126°
2026-05-07 22:55 26.54223 -81.52385 20548 ft 425 kts 127°
2026-05-07 22:56 26.50727 -81.47144 19604 ft 415 kts 127°
2026-05-07 22:56 26.47343 -81.42129 18673 ft 393 kts 127°
2026-05-07 22:56 26.44062 -81.37273 17746 ft 390 kts 127°
2026-05-07 22:56 26.40815 -81.32477 16805 ft 385 kts 127°
2026-05-07 22:57 26.37419 -81.27899 15927 ft 380 kts 129°
2026-05-07 22:57 26.34023 -81.23435 15065 ft 375 kts 128°
2026-05-07 22:57 26.30698 -81.19006 14226 ft 370 kts 128°
2026-05-07 22:57 26.27416 -81.14636 13331 ft 361 kts 128°
2026-05-07 22:58 26.24241 -81.10464 12479 ft 349 kts 128°
2026-05-07 22:58 26.21122 -81.06364 11698 ft 344 kts 128°
2026-05-07 22:58 26.19563 -81.04313 11269 ft 343 kts 128°
2026-05-07 22:58 26.18032 -81.02301 10877 ft 336 kts 128°
2026-05-07 22:59 26.16539 -81.00343 10490 ft 327 kts 128°
2026-05-07 22:59 26.15143 -80.98401 10114 ft 316 kts 119°
2026-05-07 22:59 26.14372 -80.96194 9936 ft 296 kts 101°
2026-05-07 22:59 26.13970 -80.93950 9401 ft 294 kts 98°
2026-05-07 23:00 26.13631 -80.91761 8992 ft 289 kts 98°
2026-05-07 23:00 26.13289 -80.89537 8644 ft 288 kts 98°
2026-05-07 23:00 26.12947 -80.87371 8300 ft 288 kts 98°
2026-05-07 23:00 26.12590 -80.85178 7947 ft 288 kts 99°
2026-05-07 23:01 26.12231 -80.83000 7586 ft 284 kts 99°
2026-05-07 23:01 26.11874 -80.80855 7226 ft 279 kts 100°
2026-05-07 23:01 26.11530 -80.78740 6988 ft 276 kts 99°
2026-05-07 23:01 26.11229 -80.76634 6815 ft 274 kts 98°
2026-05-07 23:02 26.10943 -80.74526 6658 ft 276 kts 98°
2026-05-07 23:02 26.10655 -80.72408 6494 ft 278 kts 98°
2026-05-07 23:02 26.10364 -80.70274 6344 ft 279 kts 99°
2026-05-07 23:02 26.10069 -80.68131 6172 ft 281 kts 99°
2026-05-07 23:03 26.09772 -80.65981 6007 ft 282 kts 99°
2026-05-07 23:03 26.09473 -80.63826 5845 ft 283 kts 99°
2026-05-07 23:03 26.09173 -80.61660 5683 ft 284 kts 99°
2026-05-07 23:03 26.08870 -80.59485 5520 ft 285 kts 98°
2026-05-07 23:04 26.08570 -80.57333 5364 ft 284 kts 98°
2026-05-07 23:04 26.08268 -80.55168 5193 ft 283 kts 98°
2026-05-07 23:04 26.07967 -80.53016 5045 ft 280 kts 98°
2026-05-07 23:04 26.07770 -80.50868 4880 ft 279 kts 90°
2026-05-07 23:05 26.07826 -80.48708 4726 ft 279 kts 87°
2026-05-07 23:05 26.07885 -80.46562 4550 ft 275 kts 89°
2026-05-07 23:05 26.07891 -80.44452 4381 ft 270 kts 90°
2026-05-07 23:05 26.07874 -80.42393 4279 ft 262 kts 90°
2026-05-07 23:06 26.07856 -80.40369 3989 ft 262 kts 90°
2026-05-07 23:06 26.07840 -80.38360 3674 ft 257 kts 90°
2026-05-07 23:06 26.07825 -80.36394 3349 ft 251 kts 90°
2026-05-07 23:06 26.07812 -80.34489 3030 ft 242 kts 91°
2026-05-07 23:07 26.07799 -80.32670 2714 ft 234 kts 91°
2026-05-07 23:07 26.07791 -80.31459 2516 ft 229 kts 92°
2026-05-07 23:07 26.07774 -80.29173 2130 ft 215 kts 92°
2026-05-07 23:07 26.07764 -80.27554 1863 ft 202 kts 92°
2026-05-07 23:08 26.07754 -80.26054 1597 ft 185 kts 92°
2026-05-07 23:08 26.07745 -80.24697 1379 ft 167 kts 92°
2026-05-07 23:08 26.07740 -80.23860 1260 ft 152 kts 92°
2026-05-07 23:08 26.07733 -80.22694 1047 ft 151 kts 94°
2026-05-07 23:09 26.07724 -80.21533 845 ft 148 kts 93°
2026-05-07 23:09 26.07716 -80.20425 709 ft 148 kts 92°
2026-05-07 23:09 26.07714 -80.19251 541 ft 154 kts 95°
2026-05-07 23:09 26.07705 -80.18052 344 ft 152 kts 94°
2026-05-07 23:10 26.07704 -80.16905 122 ft 145 kts 95°
2026-05-07 23:10 26.07692 -80.15800 18 ft 135 kts 90°
2026-05-07 23:10 26.07686 -80.14995 16 ft 73 kts 90°
2026-05-07 23:10 26.07683 -80.14590 18 ft 29 kts 91°
2026-05-07 23:11 26.07637 -80.14421 19 ft 21 kts 120°
2026-05-07 23:11 26.07571 -80.14295 16 ft 18 kts 121°
2026-05-07 23:11 26.07554 -80.14230 16 ft 6 kts 98°
2026-05-07 23:11 26.07518 -80.14208 18 ft 8 kts 166°
2026-05-07 23:12 26.07485 -80.14155 15 ft 10 kts 90°
2026-05-07 23:12 26.07485 -80.14068 15 ft 12 kts 90°
2026-05-07 23:12 26.07476 -80.13979 17 ft 12 kts 121°
2026-05-07 23:12 26.07403 -80.13958 15 ft 11 kts 180°
2026-05-07 23:13 26.07339 -80.13960 15 ft 6 kts 191°
2026-05-07 23:13 26.07330 -80.13983 15 ft 3 kts 272°
2026-05-07 23:13 26.07330 -80.14003 15 ft 2 kts 270°
2026-05-07 23:13 26.07330 -80.14013 15 ft 0 kts 270°